GW2652 Weather Reports


Display with metric or nautical units.
time (UTC)temp
F
wind
direction
speed
MPH
gust
MPH
rain 1hr
in
rain 24hr
in
rain mn
in
humidity
%
barometer
mb
20260902042327 68 192 0.0 0.0 0.00 0.00 0.00 99 1015.8
20260902041822 68 192 0.0 0.0 0.00 0.00 0.00 99 1015.8
20260902041322 68 192 0.0 0.0 0.00 0.00 0.00 99 1015.5
20260902040821 68 192 0.0 0.0 0.00 0.00 0.00 99 1015.6
20260902040317 68 192 0.0 0.0 0.00 0.00 0.00 99 1015.7
20260902035815 68 192 0.0 0.0 0.00 0.37 0.37 99 1015.6
20260902035311 67 192 0.0 0.0 0.00 0.37 0.37 99 1015.5
20260902034810 68 192 0.0 0.0 0.00 0.37 0.37 99 1015.4
20260902034305 67 192 0.0 0.0 0.00 0.37 0.37 99 1015.1
20260902033803 67 192 0.0 0.0 0.00 0.37 0.37 99 1015.4
20260902033258 67 192 0.0 0.0 0.00 0.37 0.37 99 1015.4
20260902032757 67 192 0.0 0.0 0.00 0.37 0.37 99 1015.4
20260902032252 67 192 0.0 0.0 0.00 0.37 0.37 99 1015.4
20260902031751 67 192 0.0 0.0 0.00 0.37 0.37 99 1015.3
20260902031247 67 192 0.0 0.0 0.00 0.37 0.37 99 1015.4
20260902030743 67 192 0.0 0.0 0.00 0.37 0.37 99 1015.6
20260902030238 67 192 0.0 0.0 0.00 0.37 0.37 99 1015.4
20260902025737 67 192 0.0 0.0 0.00 0.37 0.37 99 1015.4
20260902025232 67 192 0.0 0.0 0.00 0.37 0.37 99 1015.6
20260902024727 67 192 0.0 0.0 0.00 0.37 0.37 99 1015.7
20260902024222 67 192 0.0 0.0 0.00 0.37 0.37 99 1015.6
20260902023718 67 192 0.0 0.0 0.00 0.37 0.37 99 1015.5
20260902023213 67 192 0.0 0.0 0.00 0.37 0.37 99 1015.4
20260902022712 67 192 0.0 0.0 0.00 0.37 0.37 99 1015.7
20260902022208 67 196 0.0 0.0 0.00 0.37 0.37 99 1015.5
20260902021704 67 196 0.0 0.0 0.00 0.37 0.37 99 1015.5
20260902021204 67 196 0.0 0.0 0.00 0.37 0.37 99 1015.5
20260902020700 68 196 0.0 0.0 0.00 0.37 0.37 99 1015.5
20260902020156 68 196 0.0 0.0 0.00 0.37 0.37 99 1015.5
20260902015651 68 196 0.0 0.0 0.00 0.37 0.37 99 1015.3
20260902015148 68 196 0.0 0.0 0.00 0.37 0.37 99 1015.2
20260902014643 68 196 0.0 0.0 0.00 0.37 0.37 99 1015.2
20260902014138 68 196 0.0 0.0 0.00 0.37 0.37 99 1015.3
20260902013637 68 196 0.0 0.0 0.00 0.37 0.37 99 1015.1
20260902013133 68 196 0.0 0.0 0.00 0.37 0.37 99 1015.1
20260902012629 68 196 0.0 0.0 0.00 0.37 0.37 99 1014.8
20260902012124 68 196 0.0 0.0 0.00 0.37 0.37 99 1014.8
20260902011620 69 196 0.0 0.0 0.00 0.37 0.37 99 1015.1
20260902011119 69 196 0.0 0.0 0.00 0.37 0.37 99 1014.9
20260902010613 69 196 0.0 0.0 0.00 0.37 0.37 99 1015.0
20260902010109 69 196 0.0 0.0 0.00 0.37 0.37 99 1014.8
20260902005606 69 196 0.0 0.0 0.00 0.37 0.37 99 1014.7
20260902005103 70 196 0.0 0.0 0.00 0.37 0.37 99 1014.5
20260902004602 70 196 0.0 0.0 0.00 0.37 0.37 99 1014.6
20260902004057 71 196 0.0 0.0 0.00 0.37 0.37 99 1014.5
20260902003552 71 196 0.0 0.0 0.00 0.37 0.37 99 1014.6
20260902003048 71 196 0.0 0.0 0.00 0.37 0.37 99 1014.7
20260902002543 71 196 0.0 0.0 0.00 0.37 0.37 99 1014.5
20260902002038 71 196 0.0 0.0 0.00 0.37 0.37 99 1014.4
20260902001533 71 196 0.0 0.0 0.00 0.37 0.37 99 1014.2
20260902001028 71 196 0.0 0.0 0.00 0.37 0.37 99 1014.2
20260902000523 71 196 0.0 0.0 0.00 0.37 0.37 99 1014.1
20260902000018 72 196 0.0 0.0 0.00 0.37 0.37 99 1014.0
20260901235513 72 196 0.0 0.0 0.00 0.37 0.37 99 1014.0
20260901235008 72 196 0.0 0.0 0.00 0.37 0.37 99 1014.0
20260901234506 72 196 0.0 0.0 0.00 0.37 0.37 99 1014.1
20260901234002 73 196 0.0 0.0 0.00 0.37 0.37 99 1014.1
20260901233457 73 196 0.0 0.0 0.00 0.37 0.37 99 1013.8
20260901232953 73 196 0.0 0.0 0.00 0.37 0.37 99 1013.9
20260901232448 73 196 0.0 0.0 0.00 0.37 0.37 99 1013.8
20260901231943 74 196 0.0 0.0 0.00 0.37 0.37 99 1013.7
20260901231439 74 196 0.0 0.0 0.00 0.37 0.37 99 1013.6
20260901230936 74 196 0.0 0.0 0.00 0.37 0.37 99 1013.8
20260901230436 74 196 0.0 0.0 0.00 0.37 0.37 99 1013.9
20260901225931 74 197 0.0 0.0 0.00 0.37 0.37 99 1013.9
20260901225430 74 197 0.0 0.0 0.00 0.37 0.37 99 1013.9
20260901224925 75 197 0.0 0.0 0.00 0.37 0.37 98 1013.7
20260901224421 76 196 0.0 0.0 0.00 0.37 0.37 96 1013.6
20260901223918 76 197 0.0 0.0 0.00 0.37 0.37 96 1013.7
20260901223413 76 197 0.0 0.0 0.00 0.37 0.37 95 1013.8
20260901222908 77 196 0.0 1.0 0.00 0.37 0.37 92 1013.8
20260901222404 78 242 1.0 1.0 0.00 0.37 0.37 91 1013.8
20260901221900 78 219 1.0 2.0 0.00 0.37 0.37 91 1013.7
20260901221355 78 221 0.0 1.0 0.00 0.37 0.37 88 1013.8
20260901220850 78 231 0.0 1.0 0.00 0.37 0.37 91 1013.7
20260901220348 78 226 0.0 0.0 0.00 0.37 0.37 90 1013.7
20260901215848 78 223 0.0 0.0 0.00 0.37 0.37 92 1013.6
20260901215347 78 223 0.0 0.0 0.00 0.37 0.37 92 1013.7
20260901214846 77 226 1.0 2.0 0.00 0.37 0.37 91 1013.6
20260901214345 77 222 1.0 1.0 0.00 0.37 0.37 91 1013.5
20260901213845 77 222 0.0 0.0 0.00 0.37 0.37 91 1013.5
20260901213340 78 222 0.0 1.0 0.00 0.37 0.37 90 1013.3
20260901212834 79 226 0.0 1.0 0.00 0.37 0.37 88 1013.3
20260901212330 78 169 1.0 1.0 0.00 0.37 0.37 91 1013.5
20260901211826 77 220 0.0 1.0 0.00 0.37 0.37 92 1013.2
20260901211322 78 223 2.0 2.0 0.00 0.37 0.37 92 1013.5
20260901210817 77 193 0.0 1.0 0.00 0.37 0.37 91 1013.5
20260901210313 78 192 1.0 1.0 0.00 0.37 0.37 90 1013.3
20260901205809 78 156 1.0 1.0 0.00 0.37 0.37 89 1013.3
20260901205309 78 156 0.0 0.0 0.00 0.37 0.37 90 1013.5
20260901204803 78 156 1.0 2.0 0.00 0.37 0.37 93 1013.2
20260901204301 77 155 0.0 1.0 0.00 0.37 0.37 91 1013.6
20260901203800 77 155 1.0 1.0 0.00 0.37 0.37 92 1013.6
20260901203259 78 155 1.0 1.0 0.00 0.37 0.37 92 1013.6
20260901202753 77 155 0.0 1.0 0.00 0.37 0.37 92 1013.5
20260901202249 77 155 0.0 0.0 0.00 0.37 0.37 92 1013.9
20260901201745 76 155 0.0 0.0 0.00 0.37 0.37 94 1013.5
20260901201238 76 155 0.0 0.0 0.00 0.37 0.37 95 1013.3
20260901200732 76 155 0.0 0.0 0.00 0.37 0.37 95 1013.7
20260901200228 75 155 1.0 2.0 0.00 0.37 0.37 95 1013.7
20260901195726 76 155 1.0 1.0 0.00 0.37 0.37 94 1013.8
20260901195226 76 155 0.0 0.0 0.00 0.37 0.37 94 1013.7
20260901194721 75 155 0.0 0.0 0.00 0.37 0.37 96 1013.6
20260901194210 75 155 0.0 0.0 0.00 0.37 0.37 98 1013.8
20260901193706 75 155 0.0 0.0 0.00 0.37 0.37 97 1013.8
20260901193201 76 155 0.0 0.0 0.00 0.37 0.37 96 1013.8
20260901192701 76 155 0.0 0.0 0.00 0.37 0.37 93 1013.7
20260901192156 76 155 0.0 0.0 0.00 0.37 0.37 94 1013.8
20260901191651 76 155 0.0 1.0 0.00 0.37 0.37 93 1013.9
20260901151203 71 218 0.0 0.0 0.00 0.37 0.37 99 1013.9
20260901150703 71 218 0.0 0.0 0.00 0.37 0.37 99 1013.9
20260901150201 71 218 0.0 0.0 0.00 0.37 0.37 99 1013.9
20260901145659 70 219 0.0 1.0 0.00 0.37 0.37 99 1013.7
20260901145154 70 157 0.0 0.0 0.00 0.37 0.37 99 1013.7
20260901144649 70 215 0.0 0.0 0.00 0.37 0.37 99 1013.8
20260901144144 70 182 0.0 1.0 0.00 0.37 0.37 99 1013.6
20260901143639 70 191 0.0 0.0 0.00 0.37 0.37 99 1013.7
20260901143136 69 185 0.0 0.0 0.00 0.37 0.37 99 1013.6
20260901142632 70 183 0.0 0.0 0.00 0.37 0.37 99 1013.6
20260901142130 71 183 0.0 0.0 0.00 0.37 0.37 99 1013.6
20260901141625 69 183 0.0 0.0 0.00 0.37 0.37 99 1013.5
20260901141120 69 183 0.0 0.0 0.00 0.37 0.37 99 1013.3
20260901140620 70 183 1.0 1.0 0.00 0.37 0.37 99 1013.6
20260901140119 69 183 0.0 0.0 0.00 0.37 0.37 99 1013.8
20260901135619 69 183 0.0 0.0 0.00 0.37 0.37 99 1013.5
20260901135114 69 183 0.0 0.0 0.00 0.37 0.37 99 1013.6
20260901134610 69 183 0.0 0.0 0.00 0.37 0.37 99 1013.8
20260901134104 69 183 0.0 0.0 0.00 0.37 0.37 99 1013.9
20260901133603 69 229 0.0 0.0 0.00 0.37 0.37 99 1014.1
20260901133102 69 229 0.0 0.0 0.00 0.37 0.37 99 1013.9
20260901132556 69 229 0.0 0.0 0.00 0.37 0.37 99 1013.9
20260901132050 68 229 0.0 1.0 0.00 0.37 0.37 99 1014.0
20260901131544 68 229 0.0 0.0 0.00 0.37 0.37 99 1013.8
20260901131034 68 229 0.0 0.0 0.00 0.37 0.37 99 1013.8
20260901130533 68 229 0.0 0.0 0.00 0.37 0.37 99 1013.8
20260901130032 67 229 0.0 0.0 0.00 0.37 0.37 99 1013.9
20260901125531 68 229 0.0 0.0 0.00 0.37 0.37 99 1014.2
20260901125027 68 229 0.0 0.0 0.00 0.37 0.37 99 1014.3
20260901124521 68 229 0.0 0.0 0.00 0.37 0.37 99 1014.4
20260901124016 68 229 0.0 0.0 0.00 0.37 0.37 99 1014.7
20260901123510 67 229 0.0 0.0 0.00 0.37 0.37 99 1014.4
20260901123009 67 231 0.0 0.0 0.00 0.37 0.37 99 1014.6
20260901122503 68 185 0.0 0.0 0.00 0.37 0.37 99 1014.2
20260901122002 68 185 0.0 0.0 0.00 0.37 0.37 99 1014.3
20260901121457 67 185 0.0 0.0 0.05 0.37 0.37 99 1014.3
20260901120952 67 185 0.0 0.0 0.05 0.37 0.37 99 1014.4
20260901120452 67 185 0.0 0.0 0.07 0.36 0.36 99 1014.4
20260901115948 67 186 0.0 0.0 0.12 0.36 0.36 99 1014.3
20260901115443 67 185 0.0 0.0 0.05 0.35 0.35 99 1014.1
20260901114940 66 185 0.0 0.0 0.00 0.34 0.34 99 1014.0
20260901114436 66 190 0.0 0.0 0.00 0.34 0.34 99 1014.0
20260901113933 66 186 1.0 1.0 0.00 0.34 0.34 99 1014.3
20260901113432 66 187 0.0 0.0 0.00 0.34 0.34 99 1014.7
20260901112928 66 187 0.0 0.0 0.07 0.34 0.34 99 1014.5
20260901112422 66 187 0.0 0.0 0.19 0.34 0.34 99 1014.7
20260901111917 65 175 2.0 2.0 0.26 0.34 0.34 99 1014.4
20260901111415 65 174 0.0 0.0 0.12 0.31 0.31 99 1014.2
20260901110909 65 174 0.0 0.0 0.83 0.30 0.30 99 1014.3
20260901110405 65 174 0.0 0.0 1.32 0.29 0.29 99 1014.3
20260901105900 65 174 0.0 0.0 0.59 0.17 0.17 99 1014.5
20260901105356 64 173 0.0 0.0 0.07 0.07 0.07 99 1014.2
20260901104852 64 173 0.0 0.0 0.07 0.07 0.07 99 1013.9
20260901104347 64 173 0.0 0.0 0.00 0.06 0.06 99 1013.8
20260901103842 64 173 0.0 0.0 0.00 0.06 0.06 99 1013.8
20260901103337 64 173 0.0 0.0 0.00 0.06 0.06 99 1013.9
20260901102831 64 173 0.0 0.0 0.05 0.06 0.06 99 1014.1
20260901102326 64 173 0.0 0.0 0.05 0.06 0.06 99 1014.1
20260901101821 64 173 0.0 0.0 0.00 0.05 0.05 99 1014.0
20260901101320 64 173 0.0 0.0 0.00 0.05 0.05 99 1014.0
20260901100815 64 173 0.0 0.0 0.00 0.05 0.05 99 1014.0
20260901100310 64 173 0.0 0.0 0.00 0.05 0.05 99 1014.1
20260901095808 64 173 0.0 0.0 0.00 0.05 0.05 99 1014.0
20260901095307 64 173 0.0 0.0 0.00 0.05 0.05 99 1013.9
20260901094801 64 173 0.0 0.0 0.00 0.05 0.05 99 1013.9
20260901094255 64 173 0.0 0.0 0.00 0.05 0.05 99 1014.3
20260901093751 64 173 0.0 0.0 0.00 0.05 0.05 99 1014.3
20260901093249 64 173 0.0 0.0 0.00 0.05 0.05 99 1014.0
20260901092746 64 173 0.0 0.0 0.00 0.05 0.05 99 1013.8
20260901092241 64 173 0.0 0.0 0.00 0.05 0.05 99 1014.2
20260901091737 64 173 0.0 0.0 0.00 0.05 0.05 99 1014.2
20260901091232 64 173 0.0 0.0 0.00 0.05 0.05 99 1014.5
20260901090726 64 173 0.0 0.0 0.00 0.05 0.05 99 1014.1
20260901090221 64 173 0.0 0.0 0.00 0.05 0.05 99 1014.2
20260901085717 64 173 0.0 0.0 0.00 0.05 0.05 99 1014.4
20260901085213 64 173 0.0 0.0 0.07 0.05 0.05 99 1014.5
20260901084709 64 173 0.0 0.0 0.12 0.05 0.05 99 1014.6
20260901084205 64 173 0.0 0.0 0.12 0.04 0.04 99 1014.5
20260901083700 64 173 0.0 0.0 0.12 0.03 0.03 99 1014.6
20260901083158 64 173 0.0 0.0 0.05 0.02 0.02 99 1014.8
20260901082652 64 173 0.0 0.0 0.00 0.01 0.01 99 1014.8
20260901082148 64 173 0.0 0.0 0.00 0.01 0.01 99 1014.5
20260901081643 64 173 0.0 0.0 0.00 0.01 0.01 99 1014.5
20260901081142 64 173 0.0 0.0 0.00 0.01 0.01 99 1014.4
20260901080637 64 173 0.0 0.0 0.07 0.01 0.01 99 1014.7
20260901080136 64 173 0.0 0.0 0.07 0.01 0.01 99 1014.8
20260901075632 64 173 0.0 0.0 0.00 0.00 0.00 99 1014.5
20260901075131 64 173 0.0 0.0 0.00 0.00 0.00 99 1014.6
20260901074631 64 173 0.0 0.0 0.00 0.00 0.00 99 1014.7
20260901074126 64 173 0.0 0.0 0.00 0.00 0.00 99 1014.7
20260901073622 64 173 0.0 0.0 0.00 0.00 0.00 99 1014.8
20260901073117 64 173 0.0 0.0 0.00 0.00 0.00 99 1014.7
20260901072613 64 173 0.0 0.0 0.00 0.00 0.00 99 1014.7
20260901072107 64 173 0.0 0.0 0.00 0.00 0.00 99 1014.7
20260901071602 64 173 0.0 0.0 0.00 0.00 0.00 99 1014.6
20260901071101 64 173 0.0 0.0 0.00 0.00 0.00 99 1014.6
20260901070555 64 173 0.0 0.0 0.00 0.00 0.00 99 1014.6
20260901070051 64 172 0.0 0.0 0.00 0.00 0.00 99 1014.8
20260901065545 64 172 0.0 0.0 0.00 0.00 0.00 99 1014.7
20260901065045 64 172 0.0 0.0 0.00 0.00 0.00 99 1015.0
20260901064542 64 172 0.0 0.0 0.00 0.00 0.00 99 1014.8
20260901064038 64 172 0.0 0.0 0.00 0.00 0.00 99 1015.1
20260901063535 64 172 0.0 0.0 0.00 0.00 0.00 99 1015.0
20260901063031 64 172 0.0 0.0 0.00 0.00 0.00 99 1015.0
20260901062526 64 172 0.0 0.0 0.00 0.00 0.00 99 1015.1
20260901062022 64 172 0.0 0.0 0.00 0.00 0.00 99 1015.1
20260901061519 64 172 0.0 0.0 0.00 0.00 0.00 99 1014.9
20260901061018 64 172 0.0 0.0 0.00 0.00 0.00 99 1015.1
20260901060513 64 172 0.0 0.0 0.00 0.00 0.00 99 1015.3
20260901060008 64 172 0.0 0.0 0.00 0.00 0.00 99 1015.4
20260901055503 64 172 0.0 0.0 0.00 0.00 0.00 99 1015.2
20260901055000 64 172 0.0 0.0 0.00 0.00 0.00 99 1015.2
20260901054457 64 172 0.0 0.0 0.00 0.00 0.00 99 1015.2
20260901053953 64 172 0.0 0.0 0.00 0.00 0.00 99 1015.3
20260901053448 64 172 0.0 0.0 0.00 0.00 0.00 99 1015.5
20260901052944 64 172 0.0 0.0 0.00 0.00 0.00 99 1015.5
20260901052439 64 172 0.0 0.0 0.00 0.00 0.00 99 1015.6
20260901051938 64 172 0.0 0.0 0.00 0.00 0.00 99 1015.3
20260901051434 64 173 0.0 0.0 0.00 0.00 0.00 99 1015.6
20260901050933 64 173 0.0 0.0 0.00 0.00 0.00 99 1015.5
20260901050429 64 172 0.0 0.0 0.00 0.00 0.00 99 1015.6
20260901045928 64 172 0.0 0.0 0.00 0.00 0.00 99 1015.6
20260901045423 64 172 0.0 0.0 0.00 0.00 0.00 99 1015.7
20260901044918 64 172 0.0 0.0 0.00 0.00 0.00 99 1015.5
20260901044415 64 172 0.0 0.0 0.00 0.00 0.00 99 1015.9
20260901043911 65 172 0.0 0.0 0.00 0.00 0.00 99 1015.7
20260901043407 64 173 0.0 0.0 0.00 0.00 0.00 99 1015.6
20260901042901 64 172 0.0 0.0 0.00 0.00 0.00 99 1015.7
20260901042401 65 172 0.0 0.0 0.00 0.00 0.00 99 1015.7